| time (UTC) | temp F | wind direction | speed knots | gust knots | rain 1hr in | rain 24hr in | rain mn in | humidity % | barometer mb |
| 20260502194904 | 60 | 178 | 0.0 | 0.0 | 0.00 | 0.00 | 0.00 | 81 | 1018.0 |
| 20260502193903 | 60 | 189 | 0.0 | 1.7 | 0.00 | 0.00 | 0.00 | 80 | 1018.0 |
| 20260502192404 | 60 | 191 | 0.0 | 2.6 | 0.00 | 0.00 | 0.00 | 79 | 1018.0 |
| 20260502191904 | 61 | 191 | 1.7 | 2.6 | 0.00 | 0.00 | 0.00 | 79 | 1018.0 |
| 20260502191404 | 61 | 246 | 0.0 | 3.5 | 0.00 | 0.00 | 0.00 | 78 | 1018.0 |
| 20260502190404 | 61 | 160 | 0.0 | 5.2 | 0.00 | 0.00 | 0.00 | 77 | 1018.0 |
| 20260502185903 | 61 | 176 | 2.6 | 5.2 | 0.00 | 0.00 | 0.00 | 76 | 1018.0 |
| 20260502185405 | 61 | 130 | 2.6 | 5.2 | 0.00 | 0.00 | 0.00 | 75 | 1018.0 |
| 20260502184903 | 61 | 157 | 3.5 | 3.5 | 0.00 | 0.00 | 0.00 | 74 | 1018.0 |
| 20260502183903 | 61 | 131 | 0.0 | 3.5 | 0.00 | 0.00 | 0.00 | 72 | 1018.0 |
| 20260502183404 | 61 | 127 | 0.0 | 3.5 | 0.00 | 0.00 | 0.00 | 72 | 1018.0 |
| 20260502182904 | 62 | 156 | 2.6 | 4.3 | 0.00 | 0.00 | 0.00 | 71 | 1018.0 |
| 20260502182404 | 62 | 139 | 2.6 | 4.3 | 0.00 | 0.00 | 0.00 | 69 | 1018.0 |
| 20260502181904 | 62 | 168 | 2.6 | 4.3 | 0.00 | 0.00 | 0.00 | 68 | 1018.0 |
| 20260502181403 | 62 | 138 | 2.6 | 4.3 | 0.00 | 0.00 | 0.00 | 68 | 1018.0 |
| 20260502180904 | 62 | 183 | 1.7 | 4.3 | 0.00 | 0.00 | 0.00 | 67 | 1018.0 |
| 20260502180405 | 62 | 131 | 2.6 | 4.3 | 0.00 | 0.00 | 0.00 | 66 | 1018.0 |
| 20260502170405 | 63 | 165 | 2.6 | 5.2 | 0.00 | 0.00 | 0.00 | 66 | 1018.0 |
| 20260502163904 | 63 | 163 | 2.6 | 5.2 | 0.00 | 0.00 | 0.00 | 67 | 1019.0 |
| 20260502163404 | 63 | 173 | 3.5 | 5.2 | 0.00 | 0.00 | 0.00 | 66 | 1019.0 |
| 20260502162903 | 64 | 140 | 2.6 | 5.2 | 0.00 | 0.00 | 0.00 | 65 | 1019.0 |
| 20260502162404 | 63 | 130 | 4.3 | 5.2 | 0.00 | 0.00 | 0.00 | 65 | 1019.0 |
| 20260502161903 | 63 | 185 | 2.6 | 5.2 | 0.00 | 0.00 | 0.00 | 64 | 1019.0 |
| 20260502161403 | 63 | 161 | 2.6 | 5.2 | 0.00 | 0.00 | 0.00 | 63 | 1019.0 |
| 20260502160905 | 63 | 159 | 2.6 | 5.2 | 0.00 | 0.00 | 0.00 | 62 | 1019.0 |
| 20260502160405 | 64 | 120 | 1.7 | 5.2 | 0.00 | 0.00 | 0.00 | 61 | 1019.0 |
| 20260502151903 | 64 | 164 | 3.5 | 7.0 | 0.00 | 0.00 | 0.00 | 63 | 1019.0 |
| 20260502151403 | 64 | 133 | 3.5 | 7.0 | 0.00 | 0.00 | 0.00 | 65 | 1019.0 |
| 20260502150904 | 64 | 164 | 3.5 | 7.0 | 0.00 | 0.00 | 0.00 | 65 | 1019.0 |
| 20260502150405 | 65 | 155 | 4.3 | 6.1 | 0.00 | 0.00 | 0.00 | 65 | 1019.0 |
| 20260502130404 | 65 | 158 | 4.3 | 5.2 | 0.00 | 0.00 | 0.00 | 59 | 1021.0 |
| 20260502123404 | 66 | 134 | 4.3 | 5.2 | 0.00 | 0.00 | 0.00 | 52 | 1021.0 |
| 20260502122904 | 66 | 121 | 3.5 | 5.2 | 0.00 | 0.00 | 0.00 | 51 | 1021.0 |
| 20260502121903 | 67 | 144 | 3.5 | 7.0 | 0.00 | 0.00 | 0.00 | 50 | 1021.0 |
| 20260502121405 | 67 | 148 | 3.5 | 7.0 | 0.00 | 0.00 | 0.00 | 49 | 1021.0 |
| 20260502120904 | 67 | 105 | 2.6 | 7.0 | 0.00 | 0.00 | 0.00 | 50 | 1021.0 |
| 20260502120405 | 67 | 83 | 3.5 | 7.0 | 0.00 | 0.00 | 0.00 | 50 | 1021.0 |
| 20260502114903 | 67 | 78 | 3.5 | 6.1 | 0.00 | 0.00 | 0.00 | 51 | 1021.0 |
| 20260502114404 | 67 | 161 | 2.6 | 6.1 | 0.00 | 0.00 | 0.00 | 48 | 1021.0 |
| 20260502113903 | 67 | 130 | 3.5 | 6.1 | 0.00 | 0.00 | 0.00 | 48 | 1021.0 |
| 20260502112903 | 66 | 130 | 2.6 | 4.3 | 0.00 | 0.00 | 0.00 | 54 | 1021.0 |
| 20260502112405 | 66 | 182 | 0.0 | 3.5 | 0.00 | 0.00 | 0.00 | 57 | 1021.0 |
| 20260502111903 | 66 | 141 | 0.0 | 3.5 | 0.00 | 0.00 | 0.00 | 58 | 1021.0 |
| 20260502111404 | 66 | 199 | 1.7 | 3.5 | 0.00 | 0.00 | 0.00 | 58 | 1021.0 |
| 20260502110404 | 65 | 138 | 1.7 | 2.6 | 0.00 | 0.00 | 0.00 | 59 | 1021.0 |
| 20260502105904 | 65 | 286 | 0.0 | 2.6 | 0.00 | 0.00 | 0.00 | 59 | 1021.0 |
| 20260502105405 | 65 | 315 | 1.7 | 2.6 | 0.00 | 0.00 | 0.00 | 59 | 1021.0 |
| 20260502104403 | 65 | 180 | 0.0 | 3.5 | 0.00 | 0.00 | 0.00 | 61 | 1021.0 |
| 20260502103903 | 64 | 188 | 0.0 | 3.5 | 0.00 | 0.00 | 0.00 | 61 | 1022.0 |
| 20260502103405 | 64 | 316 | 0.0 | 3.5 | 0.00 | 0.00 | 0.00 | 61 | 1022.0 |
| 20260502102903 | 64 | 327 | 0.0 | 0.0 | 0.00 | 0.00 | 0.00 | 61 | 1022.0 |
| 20260502102404 | 64 | 329 | 0.0 | 2.6 | 0.00 | 0.00 | 0.00 | 61 | 1022.0 |
| 20260502101902 | 64 | 309 | 0.0 | 3.5 | 0.00 | 0.00 | 0.00 | 62 | 1022.0 |
| 20260502101405 | 64 | 317 | 0.0 | 3.5 | 0.00 | 0.00 | 0.00 | 62 | 1022.0 |
| 20260502100905 | 64 | 154 | 0.0 | 3.5 | 0.00 | 0.00 | 0.00 | 62 | 1022.0 |
| 20260502100405 | 64 | 170 | 0.0 | 2.6 | 0.00 | 0.00 | 0.00 | 62 | 1022.0 |
| 20260502091404 | 62 | 182 | 0.0 | 2.6 | 0.00 | 0.00 | 0.00 | 66 | 1022.0 |
| 20260502090404 | 61 | 117 | 0.0 | 2.6 | 0.00 | 0.00 | 0.00 | 66 | 1022.0 |
| 20260502071403 | 60 | 140 | 0.0 | 0.0 | 0.00 | 0.00 | 0.00 | 73 | 1022.0 |
| 20260502070906 | 60 | 304 | 0.0 | 0.0 | 0.00 | 0.00 | 0.00 | 73 | 1022.0 |
| 20260502070404 | 60 | 150 | 0.0 | 0.0 | 0.00 | 0.00 | 0.00 | 74 | 1022.0 |
| 20260502065904 | 60 | 239 | 0.0 | 0.0 | 0.00 | 0.00 | 0.00 | 75 | 1022.0 |
| 20260502065404 | 60 | 171 | 0.0 | 0.0 | 0.00 | 0.00 | 0.00 | 76 | 1022.0 |
| 20260502063903 | 60 | 185 | 0.0 | 0.0 | 0.00 | 0.00 | 0.00 | 76 | 1022.0 |
| 20260502063404 | 60 | 135 | 0.0 | 0.0 | 0.00 | 0.00 | 0.00 | 77 | 1022.0 |
| 20260502062903 | 60 | 135 | 0.0 | 2.6 | 0.00 | 0.00 | 0.00 | 77 | 1022.0 |
| 20260502061903 | 59 | 158 | 0.0 | 2.6 | 0.00 | 0.00 | 0.00 | 77 | 1022.0 |
| 20260502061403 | 60 | 211 | 0.0 | 0.0 | 0.00 | 0.00 | 0.00 | 77 | 1022.0 |
| 20260502060903 | 60 | 290 | 0.0 | 2.6 | 0.00 | 0.00 | 0.00 | 77 | 1022.0 |
| 20260502060405 | 60 | 266 | 0.0 | 2.6 | 0.00 | 0.00 | 0.00 | 77 | 1022.0 |
| 20260502055904 | 60 | 289 | 0.0 | 2.6 | 0.00 | 0.00 | 0.00 | 77 | 1022.0 |
| 20260502055405 | 59 | 112 | 0.0 | 0.0 | 0.00 | 0.00 | 0.00 | 78 | 1022.0 |
| 20260502054904 | 59 | 149 | 0.0 | 1.7 | 0.00 | 0.00 | 0.00 | 78 | 1022.0 |
| 20260502054404 | 59 | 224 | 0.0 | 1.7 | 0.00 | 0.00 | 0.00 | 78 | 1022.0 |
| 20260502053903 | 59 | 235 | 0.0 | 1.7 | 0.00 | 0.00 | 0.00 | 78 | 1022.0 |
| 20260502052904 | 59 | 171 | 0.0 | 0.0 | 0.00 | 0.00 | 0.00 | 78 | 1022.0 |
| 20260502052404 | 59 | 220 | 0.0 | 0.0 | 0.00 | 0.00 | 0.00 | 79 | 1022.0 |
| 20260502051903 | 59 | 148 | 0.0 | 1.7 | 0.00 | 0.00 | 0.00 | 79 | 1022.0 |
| 20260502050905 | 59 | 258 | 0.0 | 1.7 | 0.00 | 0.00 | 0.00 | 79 | 1022.0 |
| 20260502045903 | 59 | 172 | 0.0 | 0.0 | 0.00 | 0.00 | 0.00 | 80 | 1022.0 |
| 20260502045405 | 59 | 160 | 0.0 | 0.0 | 0.00 | 0.00 | 0.00 | 79 | 1022.0 |
| 20260502044905 | 59 | 147 | 0.0 | 0.0 | 0.00 | 0.00 | 0.00 | 79 | 1022.0 |
| 20260502043903 | 59 | 131 | 0.0 | 0.0 | 0.00 | 0.00 | 0.00 | 80 | 1022.0 |
| 20260502042903 | 59 | 232 | 0.0 | 0.0 | 0.00 | 0.00 | 0.00 | 80 | 1022.0 |
| 20260502042403 | 59 | 277 | 0.0 | 0.0 | 0.00 | 0.00 | 0.00 | 80 | 1022.0 |
| 20260502041903 | 59 | 310 | 0.0 | 1.7 | 0.00 | 0.00 | 0.00 | 80 | 1022.0 |
| 20260502041402 | 59 | 318 | 0.0 | 2.6 | 0.00 | 0.00 | 0.00 | 80 | 1022.0 |
| 20260502040404 | 59 | 234 | 0.0 | 2.6 | 0.00 | 0.00 | 0.00 | 80 | 1021.0 |
| 20260502034904 | 59 | 212 | 0.0 | 2.6 | 0.00 | 0.00 | 0.00 | 79 | 1022.0 |
| 20260502034404 | 59 | 308 | 0.0 | 1.7 | 0.00 | 0.00 | 0.00 | 79 | 1022.0 |
| 20260502033903 | 59 | 213 | 0.0 | 1.7 | 0.00 | 0.00 | 0.00 | 79 | 1022.0 |
| 20260502033404 | 59 | 154 | 0.0 | 1.7 | 0.00 | 0.00 | 0.00 | 78 | 1022.0 |
| 20260502032404 | 59 | 153 | 0.0 | 0.0 | 0.00 | 0.00 | 0.00 | 77 | 1022.0 |
| 20260502031904 | 59 | 128 | 0.0 | 0.0 | 0.00 | 0.00 | 0.00 | 76 | 1022.0 |
| 20260502031403 | 59 | 199 | 0.0 | 2.6 | 0.00 | 0.00 | 0.00 | 76 | 1022.0 |
| 20260502030904 | 59 | 155 | 0.0 | 2.6 | 0.00 | 0.00 | 0.00 | 76 | 1022.0 |
| 20260502030405 | 59 | 175 | 0.0 | 3.5 | 0.00 | 0.00 | 0.00 | 75 | 1022.0 |
| 20260502025904 | 59 | 148 | 0.0 | 3.5 | 0.00 | 0.00 | 0.00 | 75 | 1022.0 |
| 20260502025404 | 59 | 212 | 0.0 | 3.5 | 0.00 | 0.00 | 0.00 | 74 | 1022.0 |
| 20260502024904 | 60 | 160 | 0.0 | 2.6 | 0.00 | 0.00 | 0.00 | 74 | 1022.0 |
| 20260502024403 | 60 | 148 | 0.0 | 2.6 | 0.00 | 0.00 | 0.00 | 74 | 1022.0 |
| 20260502023903 | 60 | 156 | 0.0 | 0.0 | 0.00 | 0.00 | 0.00 | 73 | 1022.0 |
| 20260502023404 | 60 | 154 | 0.0 | 0.0 | 0.00 | 0.00 | 0.00 | 73 | 1022.0 |
| 20260502022904 | 60 | 172 | 0.0 | 0.0 | 0.00 | 0.00 | 0.00 | 74 | 1022.0 |
| 20260502022404 | 60 | 189 | 0.0 | 0.0 | 0.00 | 0.00 | 0.00 | 74 | 1022.0 |
| 20260502021902 | 60 | 202 | 0.0 | 0.0 | 0.00 | 0.00 | 0.00 | 73 | 1022.0 |
| 20260502021405 | 60 | 284 | 0.0 | 0.0 | 0.00 | 0.00 | 0.00 | 73 | 1022.0 |
| 20260502020904 | 60 | 288 | 0.0 | 0.0 | 0.00 | 0.00 | 0.00 | 73 | 1022.0 |
| 20260502015902 | 60 | 289 | 0.0 | 0.0 | 0.00 | 0.00 | 0.00 | 73 | 1022.0 |
| 20260502015405 | 60 | 141 | 0.0 | 0.0 | 0.00 | 0.00 | 0.00 | 73 | 1022.0 |
| 20260502014404 | 60 | 202 | 0.0 | 0.0 | 0.00 | 0.00 | 0.00 | 73 | 1022.0 |
| 20260502013903 | 60 | 205 | 0.0 | 0.0 | 0.00 | 0.00 | 0.00 | 73 | 1022.0 |
| 20260502013404 | 60 | 243 | 0.0 | 0.0 | 0.00 | 0.00 | 0.00 | 73 | 1022.0 |
| 20260502012403 | 60 | 146 | 0.0 | 0.0 | 0.00 | 0.00 | 0.00 | 72 | 1022.0 |
| 20260502011903 | 60 | 168 | 0.0 | 0.0 | 0.00 | 0.00 | 0.00 | 72 | 1022.0 |
| 20260502011405 | 60 | 258 | 0.0 | 0.0 | 0.00 | 0.00 | 0.00 | 73 | 1022.0 |
| 20260502010903 | 60 | 258 | 0.0 | 0.0 | 0.00 | 0.00 | 0.00 | 73 | 1022.0 |
| 20260502010404 | 60 | 274 | 0.0 | 0.0 | 0.00 | 0.00 | 0.00 | 73 | 1022.0 |
| 20260502005903 | 60 | 291 | 0.0 | 2.6 | 0.00 | 0.00 | 0.00 | 72 | 1022.0 |
| 20260502005405 | 60 | 154 | 0.0 | 2.6 | 0.00 | 0.00 | 0.00 | 72 | 1022.0 |
| 20260502004903 | 60 | 310 | 0.0 | 2.6 | 0.00 | 0.00 | 0.00 | 72 | 1022.0 |
| 20260502004404 | 60 | 310 | 0.0 | 2.6 | 0.00 | 0.00 | 0.00 | 72 | 1022.0 |
| 20260502003903 | 60 | 310 | 0.0 | 3.5 | 0.00 | 0.00 | 0.00 | 72 | 1022.0 |
| 20260502002904 | 59 | 313 | 0.0 | 3.5 | 0.00 | 0.00 | 0.00 | 72 | 1022.0 |
| 20260502002406 | 59 | 317 | 0.0 | 0.0 | 0.00 | 0.00 | 0.00 | 72 | 1023.0 |
| 20260502001404 | 59 | 331 | 0.0 | 0.0 | 0.00 | 0.00 | 0.00 | 72 | 1023.0 |
| 20260502000904 | 59 | 301 | 0.0 | 0.0 | 0.00 | 0.00 | 0.00 | 72 | 1023.0 |
| 20260502000405 | 59 | 274 | 0.0 | 2.6 | 0.00 | 0.00 | 0.00 | 73 | 1023.0 |
| 20260501235904 | 59 | 301 | 0.0 | 2.6 | 0.00 | 0.00 | 0.00 | 73 | 1023.0 |
| 20260501235405 | 59 | 302 | 0.0 | 2.6 | 0.00 | 0.00 | 0.00 | 73 | 1023.0 |
| 20260501234904 | 59 | 299 | 0.0 | 3.5 | 0.00 | 0.00 | 0.00 | 73 | 1023.0 |
| 20260501234404 | 59 | 304 | 0.0 | 3.5 | 0.00 | 0.00 | 0.00 | 73 | 1023.0 |
| 20260501233903 | 59 | 318 | 1.7 | 3.5 | 0.00 | 0.00 | 0.00 | 73 | 1023.0 |
| 20260501232903 | 59 | 310 | 0.0 | 2.6 | 0.00 | 0.00 | 0.00 | 73 | 1023.0 |
| 20260501232405 | 59 | 310 | 0.0 | 2.6 | 0.00 | 0.00 | 0.00 | 73 | 1023.0 |
| 20260501231903 | 59 | 304 | 0.0 | 2.6 | 0.00 | 0.00 | 0.00 | 73 | 1023.0 |
| 20260501231404 | 59 | 190 | 0.0 | 2.6 | 0.00 | 0.00 | 0.00 | 74 | 1023.0 |
| 20260501230904 | 59 | 189 | 0.0 | 2.6 | 0.00 | 0.00 | 0.00 | 74 | 1023.0 |
| 20260501230405 | 59 | 189 | 0.0 | 2.6 | 0.00 | 0.00 | 0.00 | 74 | 1023.0 |
| 20260501225903 | 59 | 299 | 0.0 | 2.6 | 0.00 | 0.00 | 0.00 | 74 | 1023.0 |
| 20260501225404 | 59 | 181 | 0.0 | 2.6 | 0.00 | 0.00 | 0.00 | 75 | 1023.0 |
| 20260501224905 | 59 | 156 | 0.0 | 2.6 | 0.00 | 0.00 | 0.00 | 75 | 1023.0 |
| 20260501223903 | 59 | 179 | 0.0 | 2.6 | 0.00 | 0.00 | 0.00 | 77 | 1023.0 |
| 20260501223404 | 59 | 311 | 0.0 | 1.7 | 0.00 | 0.00 | 0.00 | 78 | 1023.0 |
| 20260501222904 | 59 | 300 | 0.0 | 2.6 | 0.00 | 0.00 | 0.00 | 79 | 1023.0 |
| 20260501222403 | 59 | 300 | 0.0 | 2.6 | 0.00 | 0.00 | 0.00 | 80 | 1023.0 |
| 20260501221902 | 59 | 300 | 0.0 | 2.6 | 0.00 | 0.00 | 0.00 | 81 | 1023.0 |
| 20260501221404 | 59 | 300 | 0.0 | 2.6 | 0.00 | 0.00 | 0.00 | 81 | 1023.0 |
| 20260501220904 | 59 | 300 | 1.7 | 2.6 | 0.00 | 0.00 | 0.00 | 81 | 1023.0 |
| 20260501220404 | 59 | 302 | 0.0 | 2.6 | 0.00 | 0.00 | 0.00 | 82 | 1023.0 |
| 20260501215903 | 59 | 261 | 0.0 | 0.0 | 0.00 | 0.00 | 0.00 | 81 | 1023.0 |
| 20260501215404 | 59 | 261 | 0.0 | 0.0 | 0.00 | 0.00 | 0.00 | 81 | 1023.0 |
| 20260501214905 | 60 | 262 | 0.0 | 2.6 | 0.00 | 0.00 | 0.00 | 81 | 1023.0 |
| 20260501214404 | 60 | 296 | 0.0 | 2.6 | 0.00 | 0.00 | 0.00 | 82 | 1023.0 |
| 20260501213903 | 60 | 296 | 0.0 | 2.6 | 0.00 | 0.00 | 0.00 | 82 | 1023.0 |
| 20260501212904 | 60 | 296 | 1.7 | 2.6 | 0.00 | 0.00 | 0.00 | 82 | 1023.0 |
| 20260501211904 | 60 | 303 | 0.0 | 2.6 | 0.00 | 0.00 | 0.00 | 83 | 1023.0 |
| 20260501211403 | 60 | 303 | 0.0 | 2.6 | 0.00 | 0.00 | 0.00 | 82 | 1023.0 |
| 20260501210406 | 60 | 278 | 0.0 | 0.0 | 0.00 | 0.00 | 0.00 | 82 | 1023.0 |
| 20260501205903 | 60 | 278 | 0.0 | 0.0 | 0.00 | 0.00 | 0.00 | 82 | 1023.0 |
| 20260501204904 | 60 | 287 | 0.0 | 0.0 | 0.00 | 0.00 | 0.00 | 82 | 1023.0 |
| 20260501204404 | 60 | 287 | 0.0 | 0.0 | 0.00 | 0.00 | 0.00 | 82 | 1023.0 |
| 20260501203903 | 60 | 147 | 0.0 | 0.0 | 0.00 | 0.00 | 0.00 | 82 | 1023.0 |
| 20260501203404 | 60 | 147 | 0.0 | 2.6 | 0.00 | 0.00 | 0.00 | 82 | 1023.0 |
| 20260501202904 | 60 | 146 | 0.0 | 2.6 | 0.00 | 0.00 | 0.00 | 82 | 1023.0 |
| 20260501201903 | 60 | 123 | 0.0 | 2.6 | 0.00 | 0.00 | 0.00 | 82 | 1023.0 |
| 20260501200904 | 60 | 131 | 0.0 | 5.2 | 0.00 | 0.00 | 0.00 | 82 | 1023.0 |
| 20260501200405 | 60 | 163 | 1.7 | 5.2 | 0.00 | 0.00 | 0.00 | 82 | 1023.0 |
| 20260501195903 | 60 | 141 | 1.7 | 5.2 | 0.00 | 0.00 | 0.00 | 82 | 1023.0 |
| 20260501195405 | 60 | 163 | 1.7 | 4.3 | 0.00 | 0.00 | 0.00 | 81 | 1022.0 |